[[{"header":{"parameterUnit":"m.s-1","parameterCategory":1,"la1":30.2991,"la2":30.254,"lo1":-89.0895,"lo2":-89.0444,"dy":0.0017,"dx":0.0017,"nx":28,"ny":28,"refTime":"2024-10-01T09:00:00:Z","depth":0,"parameterNumber":2,"parameterNumberName":"U-component_of_WINDS"},"data":[0,0,0,0,0,0,0,0,0,0,0,0,0,0,0,0,0,0,0,0,0,0,0,0,0,0,0,0,0,0,0,0,0,0,0,0,0,0,0,0,0,0,0,0,0,0,0,0,0,0,0,0,0,0,0,0,0,0,0.3133,0.3134,0,0.3165,0.3165,0.3165,0.3186,0.3186,0.3186,0.3187,0.3219,0.322,0.322,0,0,0,0,0,0,0,0,0,0,0,0,0,0.3093,0.3094,0.3133,0.3134,0.3134,0.3164,0.3165,0.3165,0.3186,0.3186,0.3186,0.3187,0.3219,0.322,0.322,0,0,0,0,0,0,0,0,0,0,0,0,0,0.3116,0.3094,0.3133,0.3148,0.315,0.3164,0.3165,0.3165,0.3186,0.3186,0.3187,0.3187,0.3218,0.322,0.3221,0.3223,0,0,0.3224,0.3224,0,0,0,0,0,0,0,0,0.3115,0.3118,0.3146,0.3147,0.3149,0.3172,0.3163,0.3185,0.3186,0.3172,0.3187,0.3187,0.3203,0.3205,0.3211,0.3225,0.3226,0.3224,0.3225,0.3225,0.3225,0,0,0,0,0,0,0,0.3113,0.3116,0.3146,0.3146,0.3148,0.3154,0.3157,0.3167,0.3186,0.3174,0.3175,0.3179,0.3204,0.321,0.3212,0.3226,0.3224,0.3225,0.3226,0.3226,0.3245,0.3245,0,0,0,0,0,0,0.3109,0.3115,0.3145,0.3147,0.3132,0.3154,0.3158,0.3164,0.3186,0.319,0.3178,0.3179,0.3208,0.321,0.3213,0.3218,0.3225,0.3226,0.3227,0.3245,0.3245,0.3245,0,0,0,0,0,0,0.3108,0.3112,0.3143,0.3131,0.3136,0.3155,0.3161,0.3165,0.317,0.319,0.3193,0.318,0.3208,0.3211,0.3221,0.3219,0.3227,0.3228,0.3245,0.3245,0.3245,0.3227,0,0,0,0,0,0,0.3107,0.3111,0.3112,0.3131,0.3136,0.315,0.3161,0.3165,0.3172,0.3174,0.3193,0.3196,0.3208,0.3219,0.3222,0.3221,0.3229,0.3246,0.3245,0.3245,0.3228,0.3227,0.3225,0,0,0,0,0,0.3106,0.3106,0.3112,0.3115,0.3137,0.315,0.3153,0.3167,0.3172,0.3173,0.3186,0.3195,0.3219,0.322,0.3223,0.3223,0.3246,0.3245,0.3245,0.3229,0.3227,0.3225,0,0,0,0,0,0,0.3086,0.3108,0.3115,0.3122,0.3134,0.3153,0.3155,0.3164,0.3176,0.3177,0.3194,0.3198,0.3206,0.3215,0.3215,0.3227,0.3234,0.3234,0.322,0.3219,0.3217,0.3215,0.3229,0,0,0,0,0,0.3082,0.309,0.3109,0.3113,0.3119,0.3136,0.3142,0.3152,0.3165,0.317,0.3184,0.3196,0.3207,0.3213,0.3224,0.323,0.3235,0.3231,0.323,0.3229,0.3229,0.3234,0.3233,0.3244,0.3244,0.3244,0,0,0.3074,0.3088,0.3092,0.3109,0.312,0.3128,0.314,0.3148,0.3154,0.3172,0.3181,0.3191,0.3207,0.3215,0.3219,0.3223,0.3227,0.3228,0.3227,0.3228,0.3233,0.3232,0.3231,0.3243,0.3243,0.3244,0,0,0.3065,0.3075,0.308,0.3091,0.3106,0.3118,0.3119,0.3138,0.3145,0.3155,0.3169,0.3177,0.3194,0.3205,0.3213,0.3209,0.3218,0.3212,0.3204,0.3209,0.3208,0.3207,0.3206,0.3206,0.3212,0.3212,0.3212,0,0.3053,0.3066,0.3081,0.3089,0.3097,0.3113,0.3118,0.3128,0.3146,0.3151,0.3156,0.3178,0.319,0.3201,0.32,0.3206,0.3208,0.321,0.3207,0.3206,0.3206,0.3205,0.3205,0.3211,0.3211,0.3211,0.3211,0,0.3052,0.306,0.3062,0.308,0.3088,0.3094,0.3111,0.3118,0.3127,0.3139,0.3149,0.3164,0.3178,0.3181,0.3191,0.3194,0.3196,0.3203,0.3211,0.3204,0.3203,0.3203,0.321,0.321,0.321,0.321,0,0,0.303,0.3056,0.3057,0.3066,0.3085,0.3092,0.31,0.3114,0.3119,0.3132,0.3139,0.3154,0.3161,0.317,0.3181,0.3185,0.3182,0.3191,0.3192,0.3189,0.3187,0.3182,0.3181,0.3188,0.3188,0.3188,0.3186,0,0.3023,0.3037,0.3052,0.3061,0.307,0.3086,0.3092,0.3105,0.3116,0.3126,0.3138,0.3149,0.3157,0.3163,0.3167,0.3181,0.3181,0.3181,0.3196,0.3196,0.3191,0.3181,0.3175,0.3172,0.3186,0.3186,0.3186,0,0.3018,0.303,0.304,0.3059,0.3063,0.3069,0.3083,0.3092,0.3108,0.3115,0.3126,0.3138,0.3147,0.3154,0.3167,0.3167,0.3174,0.3182,0.3182,0.3184,0.319,0.3183,0.3172,0.3171,0.3186,0.3186,0.3186,0,0.3001,0.302,0.3029,0.3035,0.3058,0.3062,0.3072,0.3087,0.3095,0.3108,0.3114,0.3127,0.3135,0.3146,0.3162,0.3165,0.3174,0.3182,0.3181,0.3181,0.3183,0.3182,0.3172,0.3187,0.3187,0.3187,0.3187,0,0.2993,0.2998,0.3022,0.3027,0.3034,0.3051,0.3058,0.3069,0.3083,0.3091,0.3106,0.3114,0.3134,0.3144,0.3156,0.3166,0.317,0.3177,0.318,0.3175,0.3175,0.318,0.3181,0.3187,0.3187,0.3187,0.3187,0,0.2975,0.2991,0.3002,0.3023,0.3028,0.3032,0.3051,0.3057,0.3069,0.308,0.3083,0.3103,0.3116,0.3132,0.315,0.3159,0.3168,0.3172,0.3162,0.3164,0.3163,0.3163,0.3157,0.3157,0.3171,0.317,0.317,0,0.2969,0.2974,0.2995,0.3002,0.3011,0.3021,0.303,0.3047,0.3055,0.3074,0.3078,0.3092,0.3104,0.3124,0.314,0.3155,0.316,0.3157,0.3162,0.3158,0.3161,0.316,0.3161,0.3155,0.3155,0.3155,0.3155,0,0.2956,0.2964,0.2975,0.2989,0.2999,0.3011,0.3024,0.3028,0.3048,0.3057,0.307,0.308,0.3099,0.3113,0.3129,0.314,0.3151,0.3153,0.3154,0.3149,0.3144,0.3147,0.3159,0.3153,0.3153,0.3153,0.3154,0.3154,0.2944,0.295,0.2966,0.2978,0.299,0.3002,0.3009,0.3022,0.3034,0.305,0.306,0.3073,0.309,0.3113,0.3123,0.3135,0.3139,0.314,0.314,0.314,0.3139,0.3142,0.3138,0.3138,0.3138,0.3138,0.3138,0,0.2933,0.2944,0.2955,0.2973,0.2983,0.2992,0.3007,0.3015,0.3026,0.3041,0.3053,0.3069,0.3083,0.31,0.3116,0.3121,0.3127,0.3125,0.3124,0.3127,0.3134,0.3132,0.312,0.312,0.312,0.312,0.312,0.312,0.2928,0.2938,0.2947,0.2963,0.2975,0.2988,0.2996,0.3007,0.3019,0.3036,0.3048,0.3059,0.3075,0.3092,0.3105,0.311,0.3115,0.3112,0.3118,0.3125,0.3126,0.3128,0.3126,0.3113,0.3113,0.311,0.311,0.311]},{"header":{"parameterUnit":"m.s-1","parameterCategory":1,"la1":30.2991,"la2":30.254,"lo1":-89.0895,"lo2":-89.0444,"dy":0.0017,"dx":0.0017,"nx":28,"ny":28,"refTime":"2024-10-01T09:00:00:Z","depth":0,"parameterNumber":3,"parameterNumberName":"V-component_of_WINDS"},"data":[0,0,0,0,0,0,0,0,0,0,0,0,0,0,0,0,0,0,0,0,0,0,0,0,0,0,0,0,0,0,0,0,0,0,0,0,0,0,0,0,0,0,0,0,0,0,0,0,0,0,0,0,0,0,0,0,0,0,-3.4374,-3.4374,0,-3.4381,-3.4381,-3.4381,-3.4406,-3.4407,-3.4407,-3.4408,-3.4408,-3.4408,-3.4407,0,0,0,0,0,0,0,0,0,0,0,0,0,-3.438,-3.438,-3.4374,-3.4374,-3.4374,-3.4381,-3.4381,-3.4381,-3.4406,-3.4407,-3.4407,-3.4408,-3.4408,-3.4408,-3.4407,0,0,0,0,0,0,0,0,0,0,0,0,0,-3.4381,-3.438,-3.4374,-3.4388,-3.4389,-3.4381,-3.4381,-3.4381,-3.4406,-3.4407,-3.4407,-3.4408,-3.4408,-3.4408,-3.4407,-3.4384,0,0,-3.4404,-3.4404,0,0,0,0,0,0,0,0,-3.4381,-3.4381,-3.4386,-3.4387,-3.4388,-3.4394,-3.4383,-3.4382,-3.4405,-3.4399,-3.4408,-3.4409,-3.4402,-3.4402,-3.4401,-3.4384,-3.4384,-3.4404,-3.4404,-3.4403,-3.4403,0,0,0,0,0,0,0,-3.4381,-3.4381,-3.4377,-3.4386,-3.4387,-3.4392,-3.4394,-3.4383,-3.4395,-3.44,-3.4402,-3.4402,-3.4403,-3.4402,-3.4401,-3.4384,-3.4404,-3.4404,-3.4403,-3.4403,-3.4353,-3.4352,0,0,0,0,0,0,-3.4379,-3.438,-3.4376,-3.4377,-3.4387,-3.4392,-3.4393,-3.4391,-3.4396,-3.4397,-3.4402,-3.4404,-3.4403,-3.4402,-3.4401,-3.4378,-3.4403,-3.4403,-3.4402,-3.4354,-3.4353,-3.4352,0,0,0,0,0,0,-3.4379,-3.4379,-3.4376,-3.4379,-3.4379,-3.4391,-3.4388,-3.439,-3.4389,-3.4397,-3.4399,-3.4398,-3.4403,-3.4402,-3.439,-3.4378,-3.4402,-3.4402,-3.4355,-3.4354,-3.4352,-3.4328,0,0,0,0,0,0,-3.438,-3.4379,-3.4371,-3.4379,-3.4379,-3.4365,-3.4387,-3.439,-3.4389,-3.4391,-3.4394,-3.4396,-3.4404,-3.4391,-3.4389,-3.4377,-3.4401,-3.4356,-3.4354,-3.4353,-3.433,-3.4326,-3.4323,0,0,0,0,0,-3.438,-3.4361,-3.437,-3.4369,-3.4369,-3.4364,-3.4364,-3.4376,-3.4388,-3.4379,-3.4385,-3.4396,-3.438,-3.4389,-3.4387,-3.4375,-3.4357,-3.4355,-3.4353,-3.4332,-3.4327,-3.4323,0,0,0,0,0,0,-3.4348,-3.4362,-3.4372,-3.4356,-3.4359,-3.4369,-3.4358,-3.437,-3.4368,-3.437,-3.4383,-3.4383,-3.4369,-3.4371,-3.4381,-3.4355,-3.437,-3.4368,-3.4355,-3.435,-3.4347,-3.4347,-3.44,0,0,0,0,0,-3.434,-3.4336,-3.4348,-3.4333,-3.4334,-3.4346,-3.4344,-3.4354,-3.4356,-3.4357,-3.4361,-3.4362,-3.4358,-3.4354,-3.435,-3.4331,-3.4333,-3.4322,-3.4318,-3.4315,-3.4313,-3.4306,-3.4302,-3.4346,-3.4346,-3.4346,0,0,-3.4321,-3.4329,-3.4325,-3.4327,-3.433,-3.4325,-3.4347,-3.434,-3.4336,-3.4355,-3.4344,-3.4348,-3.435,-3.4335,-3.4328,-3.4336,-3.4302,-3.4313,-3.4311,-3.431,-3.4304,-3.43,-3.4296,-3.4344,-3.4345,-3.4345,0,0,-3.4285,-3.429,-3.428,-3.4284,-3.4291,-3.4299,-3.4297,-3.4306,-3.431,-3.43,-3.4315,-3.4311,-3.4302,-3.4304,-3.4304,-3.4274,-3.4284,-3.4272,-3.4253,-3.4246,-3.4243,-3.424,-3.4231,-3.4228,-3.427,-3.427,-3.427,0,-3.4261,-3.4256,-3.4272,-3.4266,-3.4267,-3.4288,-3.4277,-3.428,-3.4283,-3.4283,-3.4293,-3.4285,-3.4287,-3.4275,-3.4268,-3.4267,-3.4265,-3.4271,-3.4243,-3.424,-3.4237,-3.4229,-3.4225,-3.4268,-3.4269,-3.4269,-3.4269,0,-3.4227,-3.4223,-3.4214,-3.4221,-3.4221,-3.4212,-3.4227,-3.4225,-3.4236,-3.4244,-3.4235,-3.4239,-3.4238,-3.4236,-3.4244,-3.4225,-3.423,-3.424,-3.4256,-3.4231,-3.4224,-3.4221,-3.4266,-3.4267,-3.4267,-3.4268,0,0,-3.4168,-3.4188,-3.4184,-3.419,-3.42,-3.4197,-3.4191,-3.4193,-3.4192,-3.4194,-3.4189,-3.4184,-3.4196,-3.4195,-3.4204,-3.4198,-3.4177,-3.421,-3.421,-3.4205,-3.4159,-3.4152,-3.4148,-3.4185,-3.4184,-3.4184,-3.416,0,-3.4136,-3.4127,-3.4144,-3.4131,-3.4129,-3.4151,-3.4145,-3.4151,-3.4159,-3.4158,-3.4166,-3.4164,-3.4178,-3.4178,-3.4173,-3.4181,-3.4168,-3.4183,-3.418,-3.418,-3.418,-3.4144,-3.4135,-3.4111,-3.4157,-3.4156,-3.4156,0,-3.4096,-3.4101,-3.4089,-3.4105,-3.4105,-3.4099,-3.4105,-3.4103,-3.4111,-3.4118,-3.412,-3.4133,-3.4127,-3.4143,-3.4136,-3.4146,-3.4146,-3.415,-3.4149,-3.4149,-3.4166,-3.4143,-3.4104,-3.4101,-3.4151,-3.4151,-3.4152,0,-3.4057,-3.406,-3.4055,-3.4058,-3.4075,-3.4072,-3.4078,-3.4087,-3.4089,-3.4093,-3.4094,-3.4096,-3.4098,-3.4099,-3.4112,-3.4122,-3.4105,-3.412,-3.411,-3.411,-3.4105,-3.4105,-3.4066,-3.4104,-3.4104,-3.4104,-3.4104,0,-3.4019,-3.4011,-3.4038,-3.4034,-3.4027,-3.4047,-3.4038,-3.4047,-3.4056,-3.4054,-3.4072,-3.407,-3.4087,-3.4087,-3.4097,-3.4091,-3.4091,-3.4096,-3.4099,-3.4095,-3.4094,-3.4095,-3.4097,-3.4103,-3.4103,-3.4103,-3.4104,0,-3.3973,-3.3991,-3.3986,-3.4005,-3.401,-3.4004,-3.4019,-3.4016,-3.4028,-3.4026,-3.4026,-3.4043,-3.4044,-3.4058,-3.4061,-3.4068,-3.4058,-3.4063,-3.4056,-3.4058,-3.4048,-3.4049,-3.4008,-3.4004,-3.4044,-3.4043,-3.4043,0,-3.3948,-3.3943,-3.3963,-3.3965,-3.3972,-3.3973,-3.3977,-3.3996,-3.3998,-3.401,-3.4006,-3.401,-3.4013,-3.4014,-3.4026,-3.4029,-3.4035,-3.4021,-3.4035,-3.4033,-3.4036,-3.4037,-3.4037,-3.4017,-3.4016,-3.4016,-3.4016,0,-3.3902,-3.3912,-3.3917,-3.3926,-3.393,-3.3937,-3.3945,-3.3945,-3.3967,-3.3969,-3.3972,-3.3976,-3.3982,-3.3985,-3.3991,-3.3997,-3.401,-3.4012,-3.401,-3.4005,-3.4002,-3.4005,-3.4049,-3.4012,-3.4012,-3.4013,-3.4013,-3.4013,-3.3866,-3.3865,-3.388,-3.3885,-3.3895,-3.3903,-3.3903,-3.3916,-3.392,-3.3928,-3.3939,-3.3942,-3.3953,-3.3963,-3.3968,-3.397,-3.3978,-3.3974,-3.3973,-3.3972,-3.3971,-3.4002,-3.3971,-3.3971,-3.3971,-3.3971,-3.3972,0,-3.3823,-3.3835,-3.384,-3.3853,-3.3858,-3.3874,-3.3885,-3.3887,-3.389,-3.39,-3.3905,-3.3911,-3.3915,-3.3929,-3.3935,-3.3934,-3.3941,-3.3935,-3.3935,-3.3937,-3.3963,-3.3965,-3.393,-3.393,-3.393,-3.393,-3.393,-3.393,-3.3801,-3.38,-3.3813,-3.3817,-3.3829,-3.3834,-3.3839,-3.3847,-3.3856,-3.3862,-3.3867,-3.3877,-3.3889,-3.3897,-3.3903,-3.3907,-3.3908,-3.3901,-3.3907,-3.3931,-3.3935,-3.3939,-3.3941,-3.3901,-3.3901,-3.3881,-3.3881,-3.3881]}]]